Hourly Data Report for November 16, 2017

All times are specified in Local Standard Time (LST). Add 1 hour to adjust for Daylight Saving Time where and when it is observed.

DAUPHIN
MANITOBA

51°06'03.000" N
100°03'09.000" W
304.50 m
5040689
71036
YDN

Download Data

Hourly Data (November 2017)
Hourly Data Report for November 16, 2017
Temp Definition
°C
Dew Point Temp Definition
°C
Rel Hum Definition
%
Wind Dir Definition
10's deg

Wind Spd Definition
km/h
Visibility Definition
km
Stn Press Definition
kPa
Hmdx Definition


Wind Chill Definition


Weather Definition


TIME
00:00 Legend Double Dagger -12.6 -13.8 91 9 8 16.1 98.76   -18 Snow
01:00 Legend Double Dagger -11.1 -12.6 89 13 15 16.1 98.74   -18 Snow
02:00 Legend Double Dagger -11.1 -12.4 90 14 21 16.1 98.65   -19 Snow
03:00 Legend Double Dagger -10.8 -12.1 90 13 22 16.1 98.57   -19 Snow
04:00 Legend Double Dagger -10.6 -11.9 90 14 13 16.1 98.47   -17 Snow
05:00 Legend Double Dagger -11.4 -12.9 89 12 15 16.1 98.35   -18 Snow
06:00 Legend Double Dagger -10.6 -12.0 89 13 18 16.1 98.23   -18 Snow
07:00 Legend Double Dagger -10.4 -11.9 89 14 22 16.1 98.13   -19 Snow
08:00 Legend Double Dagger -10.6 -12.1 89 13 15 16.1 98.00   -17 Snow
09:00 Legend Double Dagger -9.7 -10.9 91 13 24 16.1 97.87   -18 Snow
10:00 Legend Double Dagger -8.4 -9.9 89 13 24 12.9 97.74   -17 Snow
11:00 Legend Double Dagger -7.7 -9.1 90 13 30 16.1 97.56   -17 LegendNANA
12:00 Legend Double Dagger -6.7 -8.1 90 13 34 16.1 97.38   -16 LegendNANA
13:00 Legend Double Dagger -6.0 -7.4 90 13 41 16.1 97.17   -16 LegendNANA
14:00 Legend Double Dagger -5.7 -6.9 91 13 39 16.1 96.98   -15 LegendNANA
15:00 Legend Double Dagger -5.6 -6.8 91 13 39 14.5 96.79   -15 LegendNANA
16:00 Legend Double Dagger -5.3 -6.5 91 12 34 16.1 96.66   -14 LegendNANA
17:00 Legend Double Dagger -5.0 -6.3 91 13 30 16.1 96.57   -13 LegendNANA
18:00 Legend Double Dagger -4.3 -5.9 89 13 11 16.1 96.56   -9 LegendNANA
19:00 Legend Double Dagger -2.9 -5.1 85 17 18 16.1 96.33   -9 LegendNANA
20:00 Legend Double Dagger -1.8 -4.3 83 21 28 16.1 96.25   -9 LegendNANA
21:00 Legend Double Dagger -1.1 -3.9 82 19 26 16.1 96.03   -7 LegendNANA
22:00 Legend Double Dagger -0.7 -3.5 81 20 34 16.1 95.86   -8 LegendNANA
23:00 Legend Double Dagger -0.5 -3.5 80 23 34 16.1 95.84   -8 LegendNANA

Notes on Data Quality.

Legend

  • E = Estimated
  • M = Missing
  • NA = Not Available
  • ‡ = Partner data that is not subject to review by the National Climate Archives
Date modified: